Showing default

HAWK-6C, 55326

Orbit data source: Space-Track

HAWK-6C, 55326 is a payload satellite owned by HawkEye 360 (US) in LEO that was launched on Tue, 24 Jan 2023 UTC via an ELECTRON launch vehicle from the Wallops Island (WLPIS). Payload-class satellites include a variety of spacecraft equipped with specific instruments for various scientific and technological missions. These include communications satellites like Starlink; space stations such as the ISS; scientific satellites like the Hubble; Earth observation satellites from companies like Planet Labs, Umbra, and HawkEye 360; GPS; miniature CubeSats for education and research; and military/defense satellites.

Loading next visibility...
Identifier
55326, 2023-011C
Orbit
LEO
Country
Flag of USUS
Related business
Manufacturer
UTIAS-SFL
Mission
Operational Commercial Sigint
Bus & Motor
HAWK2G, Unknown motor
Mass
31 kg wet, 30 kg dry
Launch date (UTC)
2023-01-24 (3 years ago)
Launch vehicle
ELECTRON
Launch site
Wallops Island (WLPIS)
Object type
Payload
Rocket body
Debris
Shape & HBR
Box + 2 Pan, 1.0 m
Radar Cross Section
0.240 m², Medium (>0.1 m² and < 1m²)

Expand to show TLE details & history
Last TLE update: 2 days ago

TLE from 2 days ago
0 HAWK-6C
1 55326U 23011C   26171.46121352  .00003677  00000-0  16145-3 0  9992
2 55326  40.4987 329.8134 0002662  13.1214 346.9664 15.22954484188350
Epoch: 2026-06-20T11:04Z
TLE epoch observation values (Epoch: 2026-06-20T11:04:08.848Z)
Latitude
-0.00001°
Longitude
-104.89899°
Altitude
494.651 km
Speed
7.62 km/s
True Right ascension
21h 59m 15s
True Declination
0° 00' 00"
Sunlit
Object was in full shadow at epoch
Visualization orbit readout
Latitude
Unknown
Longitude
Unknown
Altitude
Unknown
Speed
Unknown
Apparent Right ascension
Unknown
Apparent Declination
Unknown
Sunlit
N/A
Visualization observer readout
Local Sidereal Time
21:40:22
Azimuth
Unknown
Elevation
Unknown
Doppler factor
Unknown
Orbital elements
Apogee altitude
501.123 km
Perigee altitude
497.462 km
Semi-major axis
6,877.43 km
Eccentricity
0.00027
Inclination
40.4987°
RAAN
329.8134°
Arg. of periapsis
13.1214°
True anomaly
346.95952°
Mean anomaly
346.9664°
Eccentric anomaly
346.96296°
Mean motion
3.80543 °/min
Orbital period
94.6 mins
BSTAR
0.00016145
Loading maneuver chart data...
Computing Atmospheric mass density...
Loading historical data...
Loading historical data...
Loading historical data...
Loading historical data...
Loading historical data...
Loading historical data...
Loading historical data...

Documentation

Showing up to 5 results
|